Location: Fort Lauderdale
(26.1220°N, 80.1440°W)
Time: 13:58:18
(UTC-05:00)

OTV 5 (USA 277) - Pass Details

Date: 29 October 2019
Orbit: 310 x 324 km, 54.5° (Epoch: 17 October)

Event Time Altitude Azimuth Distance (km) Brightness Sun altitude
Rises 19:17:52 0° 257° (WSW) 2,040 ? -8.9°
Reaches altitude 10° 19:20:52 10° 295° (WNW) 1,218 ? -9.6°
Maximum altitude 19:21:49 11° 315° (NW) 1,151 ? -9.8°
Drops below altitude 10° 19:22:45 10° 336° (NNW) 1,223 ? -10.0°
Sets 19:25:48 0° 14° (NNE) 2,060 ? -10.7°
